Regional Weather Roundup
Issued by NWS

Home | Current Version | Previous Version | Text Only | Print | Product List | Glossary Off
Versions: 1 2 3 4 5 6 7 8 9 10 11 12 13 14 15 16 17 18 19 20 21 22 23 24 25 26 27 28 29 30 31 32 33 34 35 36 37 38 39 40 41 42 43 44 45 46 47 48 49 50

000
ASUS43 KMPX 220310
RWRMN
WEATHER ROUNDUP FOR MINNESOTA
NATIONAL WEATHER SERVICE TWIN CITIES/CHANHASSEN MN
1000 PM CDT MON JUL 21 2014


NOTE: "FAIR" INDICATES FEW OR NO CLOUDS BELOW 12,000 FEET WITH NO
SIGNIFICANT WEATHER AND/OR OBSTRUCTIONS TO VISIBILITY. N/A MEANS
CURRENT SKY AND/OR WEATHER CONDITIONS ARE NOT AVAILABLE.

MNZ060>063-068>070-220400-
   Twin Cities Metro

CITY           SKY/WX    TMP DP  RH WIND       PRES   REMARKS
TWIN CITIES    PTCLDY    83  74  74 SE14      29.81F
ST PAUL        MOCLDY    82  74  76 S15       29.81F
CRYSTAL        PTCLDY    84  74  71 S16G23    29.79F HX  91
BLAINE         MOCLDY    84  75  74 SE15G24   29.80S HX  92
LAKEVILLE      MOCLDY    79  73  83 SE9       29.83F
EDEN PRAIRIE   PTCLDY    82  75  79 SE12      29.80F
SOUTH ST PAUL  MOCLDY    82  73  72 SE10G16   29.81F
LAKE ELMO      FAIR      81  73  78 SE10G16   29.84F
$$
MNZ001>005-007-008-013>017-022>024-027-028-220400-
   Northwest Minnesota

CITY           SKY/WX    TMP DP  RH WIND       PRES   REMARKS
BEMIDJI        CLOUDY    81  74  80 S10       29.71F
HALLOCK        CLOUDY    66  64  94 NE17      29.80F
ROSEAU         CLOUDY    66  63  88 NW3       29.79R
WARROAD        CLOUDY    72  66  83 VRB23G30  29.72F
THIEF RVR FALL CLOUDY    68  66  94 NW20      29.74R THUNDER
FOSSTON        TSTM      68  64  88 W24G36    29.82R
DETROIT LAKES  CLOUDY    81  73  78 SW9G20    29.79R
MOORHEAD       RAIN      68  68 100 NW6       29.78R
PARK RAPIDS    CLOUDY    82  75  79 S15G25    29.74R
$$
MNZ006-009>011-018-025>026-220400-
   North Central Minnesota

CITY           SKY/WX    TMP DP  RH WIND       PRES   REMARKS
BAUDETTE       LGT RAIN  71  64  78 NE22G32   29.72F
FLAG ISLAND    CLOUDY    70  64  83 N24       29.78F
INTL FALLS     MOCLDY    77  73  87 E5        29.75F
WASKISH        CLOUDY    81  73  78 E7        29.68F
BIG FORK       MOCLDY   N/A N/A N/A SE6       29.74F
LONGVILLE      CLOUDY    81  75  83 SE10G16   29.73F
GRAND RAPIDS   MOCLDY    81  73  78 SE13G21   29.75F
CRANE LAKE     CLEAR     73  72  94 CALM      29.79F
ORR            PTCLDY    79  70  73 SE3       29.76F
COOK           PTCLDY    79  72  78 E3        29.80S
$$
MNZ012-019>021-037-220400-
   Northeast Minnesota

CITY           SKY/WX    TMP DP  RH WIND       PRES   REMARKS
DULUTH         MOCLDY    81  72  74 SE10      29.83S
ELY            CLEAR     77  70  78 SE7       29.83F
HIBBING        MOCLDY    81  74  79 SE8       29.79F
EVELETH        CLEAR     77  72  83 S6        29.82F
DULUTH HARBOR  MOCLDY    66  63  88 NE10      29.81S
TWO HARBORS    PTCLDY    73  68  83 CALM      29.82S
SILVER BAY     PTCLDY    73  72  94 CALM      29.83F
GRAND MARAIS     N/A     62  60  93 N5        29.86R
G MARAIS ARPRT MOCLDY    72  66  83 SE3       29.92S
$$
MNZ029>031-032-039>041-046>048-054>057-064-220400-
   West Central Minnesota

CITY           SKY/WX    TMP DP  RH WIND       PRES   REMARKS
FERGUS FALLS   CLOUDY    81  72  74 S10       29.74R
WHEATON        CLOUDY    77  70  78 W22G31    29.81R
MORRIS         CLOUDY    79  75  89 S9        29.73R
ALEXANDRIA     CLOUDY    80  73  79 S15G24    29.76S
ELBOW LAKE     FAIR      79  74  83 S13       29.74R
WADENA         CLOUDY    79  72  78 S15       29.74S
GLENWOOD       MOCLDY    79  73  83 S13G20    29.77S
APPLETON       MOCLDY    81  73  78 S9        29.72S
BENSON         MOCLDY    79  73  83 S9        29.74S
MADISON        PTCLDY    81  75  83 S8        29.73S
WILLMAR        FAIR      81  72  74 SE12G18   29.77F
$$
MNZ033>034-036-042>043-049>051-058-059-220400-
   Central Minnesota

CITY           SKY/WX    TMP DP  RH WIND       PRES   REMARKS
ST CLOUD       PTCLDY    83  74  74 S10       29.78S
SAUK CENTRE    FAIR      79  73  83 S10G16    29.77S
PAYNESVILLE    PTCLDY    77  72  83 E8        29.78S
AITKIN         CLOUDY    82  75  78 SE10G17   29.76F
PINE RIVER     CLOUDY    82  73  74 S12G22    29.78S
BRAINERD       CLOUDY    81  74  79 S16G26    29.75F
STAPLES        CLOUDY    81  72  74 S15G23    29.74S
LONG PRAIRIE   FAIR      79  72  78 SE14G22   29.77S
LITTLE FALLS   MOCLDY    81  72  74 S9G17     29.77R
LITCHFIELD     CLEAR     82  77  83 SE10G16   29.79S HX  91
BUFFALO        PTCLDY    82  73  74 SE13      29.79S
MAPLE LAKE     PTCLDY    82  76  81 S7        29.78F
$$
MNZ037-044-045-052-053-220400-
   East Central Minnesota

CITY           SKY/WX    TMP DP  RH WIND       PRES   REMARKS
PRINCETON      MOCLDY    82  75  78 SE10      29.79S
MORA           MOCLDY    79  70  73 S6        29.82R
CAMBRIDGE      MOCLDY    84  72  65 SE10      29.77F
RUSH CITY      MOCLDY    81  73  76 SE9G17    29.81S
MOOSE LAKE     CLOUDY    81  72  74 S5        29.80R
HINCKLEY       FAIR      81  73  78 S8        29.81R
CLOQUET        CLOUDY    81  72  74 SE8       29.82F
MCGREGOR       CLOUDY    81  73  78 SE12      29.80S
$$
MNZ071>073-080-081-089-090-097-098-220400-
   Southwest Minnesota

CITY           SKY/WX    TMP DP  RH WIND       PRES   REMARKS
MONTEVIDEO     PTCLDY    81  75  83 S9        29.75S
GRANITE FALLS  PTCLDY    79  74  84 SE8       29.76F
CANBY          CLEAR     80  75  85 S8        29.75S
MARSHALL       CLEAR     79  73  83 S12       29.75S
REDWOOD FALLS  CLEAR     81  76  84 SE14      29.77S
OLIVIA         CLEAR     79  73  83 SE10      29.77S
PIPESTONE      CLEAR     81  75  83 S12       29.81R
WINDOM         PTCLDY    81  75  83 SE10      29.82S
WORTHINGTON    PTCLDY    81  77  89 S9        29.84R
TRACY          CLEAR     81  76  86 S10       29.78S
SLAYTON        CLEAR     78  76  94 CALM      29.82S FOG
$$
MNZ065>067-074>077-082>085-091>093-220400-
   South Central Minnesota

CITY           SKY/WX    TMP DP  RH WIND       PRES   REMARKS
MANKATO        MOCLDY    82  73  74 S13       29.82S
NEW ULM        PTCLDY    81  77  89 S10       29.80R
ST JAMES       PTCLDY    81  75  83 SE12      29.81F
FAIRMONT       PTCLDY    81  73  78 SE13      29.84S
GLENCOE        MOCLDY    82  73  75 SE7       29.79F
FARIBAULT      MOCLDY    84  72  65 SE10G20   29.84F
OWATONNA       MOCLDY    82  73  74 SE18G24   29.86S
WASECA         MOCLDY    79  70  73 SE9       29.86S
ALBERT LEA     MOCLDY    81  75  83 S14       29.87F
$$
MNZ078>079-086>088-094>096-220400-
   Southeast Minnesota

CITY           SKY/WX    TMP DP  RH WIND       PRES   REMARKS
ROCHESTER      MOCLDY    79  72  79 S13G20    29.91F
RED WING       PTCLDY    82  72  69 S13       29.85S
STANTON        MOCLDY    82  73  72 S10G18    29.83F
DODGE CENTER   PTCLDY    81  73  78 S13       29.89F
WINONA         MOCLDY    81  70  69 SE6       29.91F
AUSTIN         PTCLDY    81  73  78 S9        29.90S
PRESTON        CLOUDY    78  74  89 S12       29.94S
$$
ABBREVIATIONS USED IN REMARKS
   TC - TEMPERATURES IN CELSIUS
  WCI - WIND CHILL INDEX
   HX - HEAT INDEX
  VSB - VISIBILITY
$$



USA.gov is the U.S. government's official web portal to all federal, state and local government web resources and services.